Time,TemperatureF,DewpointF,PressureIn,WindDirection,WindDirectionDegrees,WindSpeedMPH,WindSpeedGustMPH,Humidity,HourlyPrecipIn,Conditions,Clouds,dailyrainin,SoftwareType,DateUTC
2013-01-18 00:01:00,23.3,13.7,30.28,SSE,167,0.0,0.0,66,0.00,,,0.00,WUHU216DAVISVP2,2013-01-18 05:01:00,
2013-01-18 00:02:00,23.3,13.3,30.28,SSE,167,0.0,0.0,65,0.00,,,0.00,WUHU216DAVISVP2,2013-01-18 05:02:00,
2013-01-18 00:03:00,23.3,13.7,30.28,SSE,167,0.0,0.0,66,0.00,,,0.00,WUHU216DAVISVP2,2013-01-18 05:03:00,
2013-01-18 00:08:00,23.3,14.0,30.29,SSE,167,0.0,0.0,67,0.00,,,0.00,WUHU216DAVISVP2,2013-01-18 05:08:00,
2013-01-18 00:13:00,23.3,13.7,30.29,SSE,167,0.0,0.0,66,0.00,,,0.00,WUHU216DAVISVP2,2013-01-18 05:13:00,
2013-01-18 00:18:00,23.3,13.7,30.29,SSE,167,0.0,0.0,66,0.00,,,0.00,WUHU216DAVISVP2,2013-01-18 05:18:00,
2013-01-18 00:23:00,23.3,13.6,30.29,SSE,167,0.0,0.0,66,0.00,,,0.00,WUHU216DAVISVP2,2013-01-18 05:23:00,
2013-01-18 00:28:00,23.3,13.3,30.29,SSE,167,0.0,0.0,65,0.00,,,0.00,WUHU216DAVISVP2,2013-01-18 05:28:00,
2013-01-18 00:33:00,23.3,13.3,30.29,SSE,167,0.0,0.0,65,0.00,,,0.00,WUHU216DAVISVP2,2013-01-18 05:33:00,
2013-01-18 00:38:00,23.3,14.0,30.29,SSE,167,0.0,0.0,67,0.00,,,0.00,WUHU216DAVISVP2,2013-01-18 05:38:00,
2013-01-18 00:43:00,23.3,14.0,30.29,SSE,167,0.0,0.0,67,0.00,,,0.00,WUHU216DAVISVP2,2013-01-18 05:43:00,
2013-01-18 00:48:00,23.3,14.0,30.30,SSE,167,0.0,0.0,67,0.00,,,0.00,WUHU216DAVISVP2,2013-01-18 05:48:00,
2013-01-18 00:53:00,23.3,14.7,30.30,SSE,167,0.0,0.0,69,0.00,,,0.00,WUHU216DAVISVP2,2013-01-18 05:53:00,
2013-01-18 00:58:00,23.4,14.8,30.31,SSE,167,0.0,0.0,69,0.00,,,0.00,WUHU216DAVISVP2,2013-01-18 05:58:00,
2013-01-18 01:04:00,23.6,15.0,30.31,SSE,167,0.0,0.0,69,0.00,,,0.00,WUHU216DAVISVP2,2013-01-18 06:04:00,
2013-01-18 01:09:00,23.7,15.1,30.31,SSE,167,0.0,0.0,69,0.00,,,0.00,WUHU216DAVISVP2,2013-01-18 06:09:00,
2013-01-18 01:14:00,23.8,15.1,30.31,SSE,167,0.0,0.0,69,0.00,,,0.00,WUHU216DAVISVP2,2013-01-18 06:14:00,
2013-01-18 01:19:00,23.9,15.5,30.31,SSE,167,0.0,0.0,70,0.00,,,0.00,WUHU216DAVISVP2,2013-01-18 06:19:00,
2013-01-18 01:24:00,24.0,15.6,30.32,SSE,167,0.0,0.0,70,0.00,,,0.00,WUHU216DAVISVP2,2013-01-18 06:24:00,
2013-01-18 01:29:00,24.0,15.7,30.32,SSE,167,0.0,0.0,70,0.00,,,0.00,WUHU216DAVISVP2,2013-01-18 06:29:00,
2013-01-18 01:34:00,24.0,15.7,30.32,SSE,167,0.0,0.0,70,0.00,,,0.00,WUHU216DAVISVP2,2013-01-18 06:34:00,
2013-01-18 01:39:00,24.0,15.7,30.32,SSE,167,0.0,0.0,70,0.00,,,0.00,WUHU216DAVISVP2,2013-01-18 06:39:00,
2013-01-18 01:44:00,24.1,15.8,30.33,SSE,167,0.0,0.0,70,0.00,,,0.00,WUHU216DAVISVP2,2013-01-18 06:44:00,
2013-01-18 01:50:00,24.1,15.8,30.33,SSE,167,0.0,0.0,70,0.00,,,0.00,WUHU216DAVISVP2,2013-01-18 06:50:00,
2013-01-18 01:55:00,24.3,16.0,30.33,SSE,167,0.0,0.0,70,0.00,,,0.00,WUHU216DAVISVP2,2013-01-18 06:55:00,
2013-01-18 02:00:00,24.2,15.9,30.33,SSE,167,0.0,0.0,70,0.00,,,0.00,WUHU216DAVISVP2,2013-01-18 07:00:00,
2013-01-18 02:05:00,24.2,15.9,30.33,SSE,167,0.0,0.0,70,0.00,,,0.00,WUHU216DAVISVP2,2013-01-18 07:05:00,
2013-01-18 02:10:00,24.2,16.2,30.33,SSE,167,0.0,0.0,71,0.00,,,0.00,WUHU216DAVISVP2,2013-01-18 07:10:00,
2013-01-18 02:15:00,24.1,15.8,30.33,SSE,167,0.0,0.0,70,0.00,,,0.00,WUHU216DAVISVP2,2013-01-18 07:15:00,
2013-01-18 02:21:00,24.1,16.1,30.34,SSE,167,0.0,0.0,71,0.00,,,0.00,WUHU216DAVISVP2,2013-01-18 07:21:00,
2013-01-18 02:26:00,24.2,16.2,30.34,SSE,167,0.0,0.0,71,0.00,,,0.00,WUHU216DAVISVP2,2013-01-18 07:26:00,
2013-01-18 02:31:00,24.2,15.9,30.35,SSE,167,0.0,0.0,70,0.00,,,0.00,WUHU216DAVISVP2,2013-01-18 07:31:00,
2013-01-18 02:36:00,24.2,15.9,30.35,SSE,167,0.0,0.0,70,0.00,,,0.00,WUHU216DAVISVP2,2013-01-18 07:36:00,
2013-01-18 02:41:00,24.3,16.3,30.35,SSE,167,0.0,0.0,71,0.00,,,0.00,WUHU216DAVISVP2,2013-01-18 07:41:00,
2013-01-18 02:46:00,24.5,16.2,30.36,SSE,167,0.0,0.0,70,0.00,,,0.00,WUHU216DAVISVP2,2013-01-18 07:46:00,
2013-01-18 02:51:00,24.6,15.9,30.36,SSE,167,0.0,0.0,69,0.00,,,0.00,WUHU216DAVISVP2,2013-01-18 07:51:00,
2013-01-18 02:56:00,24.6,16.3,30.36,SSE,167,0.0,0.0,70,0.00,,,0.00,WUHU216DAVISVP2,2013-01-18 07:56:00,
2013-01-18 03:01:00,24.6,16.3,30.36,SSE,167,0.0,0.0,70,0.00,,,0.00,WUHU216DAVISVP2,2013-01-18 08:01:00,
2013-01-18 03:06:00,24.6,16.6,30.37,SSE,167,0.0,0.0,71,0.00,,,0.00,WUHU216DAVISVP2,2013-01-18 08:06:00,
2013-01-18 03:11:00,24.5,16.2,30.37,SSE,167,0.0,0.0,70,0.00,,,0.00,WUHU216DAVISVP2,2013-01-18 08:11:00,
2013-01-18 03:17:00,24.5,16.2,30.37,SSE,167,0.0,0.0,70,0.00,,,0.00,WUHU216DAVISVP2,2013-01-18 08:17:00,
2013-01-18 03:22:00,24.5,16.2,30.37,SSE,167,0.0,0.0,70,0.00,,,0.00,WUHU216DAVISVP2,2013-01-18 08:22:00,
2013-01-18 03:27:00,24.4,16.7,30.37,SSE,167,0.0,0.0,72,0.00,,,0.00,WUHU216DAVISVP2,2013-01-18 08:27:00,
2013-01-18 03:32:00,24.5,16.8,30.37,SSE,167,0.0,0.0,72,0.00,,,0.00,WUHU216DAVISVP2,2013-01-18 08:32:00,
2013-01-18 03:37:00,24.6,16.6,30.37,SSE,167,0.0,0.0,71,0.00,,,0.00,WUHU216DAVISVP2,2013-01-18 08:37:00,
2013-01-18 03:42:00,24.5,16.5,30.37,SSE,167,0.0,0.0,71,0.00,,,0.00,WUHU216DAVISVP2,2013-01-18 08:42:00,
2013-01-18 03:47:00,24.5,16.5,30.37,SSE,167,0.0,0.0,71,0.00,,,0.00,WUHU216DAVISVP2,2013-01-18 08:47:00,
2013-01-18 03:52:00,24.5,16.5,30.37,SSE,167,0.0,0.0,71,0.00,,,0.00,WUHU216DAVISVP2,2013-01-18 08:52:00,
2013-01-18 03:57:00,24.5,16.5,30.37,SSE,167,0.0,0.0,71,0.00,,,0.00,WUHU216DAVISVP2,2013-01-18 08:57:00,
2013-01-18 04:02:00,24.4,16.4,30.36,SSE,167,0.0,0.0,71,0.00,,,0.00,WUHU216DAVISVP2,2013-01-18 09:02:00,
2013-01-18 04:07:00,24.4,16.4,30.36,SSE,167,0.0,0.0,71,0.00,,,0.00,WUHU216DAVISVP2,2013-01-18 09:07:00,
2013-01-18 04:13:00,24.3,16.3,30.36,SSE,167,0.0,0.0,71,0.00,,,0.00,WUHU216DAVISVP2,2013-01-18 09:13:00,
2013-01-18 04:18:00,24.3,16.3,30.36,SSE,167,0.0,0.0,71,0.00,,,0.00,WUHU216DAVISVP2,2013-01-18 09:18:00,
2013-01-18 04:23:00,24.2,16.5,30.36,SSE,167,0.0,0.0,72,0.00,,,0.00,WUHU216DAVISVP2,2013-01-18 09:23:00,
2013-01-18 04:28:00,24.2,16.2,30.36,SSE,167,0.0,0.0,71,0.00,,,0.00,WUHU216DAVISVP2,2013-01-18 09:28:00,
2013-01-18 04:33:00,24.1,15.8,30.36,SSE,167,0.0,0.0,70,0.00,,,0.00,WUHU216DAVISVP2,2013-01-18 09:33:00,
2013-01-18 04:38:00,24.0,15.7,30.36,SSE,167,0.0,0.0,70,0.00,,,0.00,WUHU216DAVISVP2,2013-01-18 09:38:00,
2013-01-18 04:43:00,24.0,15.7,30.36,SSE,167,0.0,0.0,70,0.00,,,0.00,WUHU216DAVISVP2,2013-01-18 09:43:00,
2013-01-18 04:48:00,23.9,15.6,30.36,SSE,167,0.0,0.0,70,0.00,,,0.00,WUHU216DAVISVP2,2013-01-18 09:48:00,
2013-01-18 04:54:00,23.8,15.5,30.36,SSE,167,0.0,0.0,70,0.00,,,0.00,WUHU216DAVISVP2,2013-01-18 09:54:00,
2013-01-18 04:59:00,23.8,15.5,30.36,SSE,167,0.0,0.0,70,0.00,,,0.00,WUHU216DAVISVP2,2013-01-18 09:59:00,
2013-01-18 05:04:00,23.8,15.5,30.37,SSE,167,0.0,0.0,70,0.00,,,0.00,WUHU216DAVISVP2,2013-01-18 10:04:00,
2013-01-18 05:09:00,23.8,15.5,30.37,SSE,167,0.0,0.0,70,0.00,,,0.00,WUHU216DAVISVP2,2013-01-18 10:09:00,
2013-01-18 05:14:00,23.8,15.8,30.36,SSE,167,0.0,0.0,71,0.00,,,0.00,WUHU216DAVISVP2,2013-01-18 10:14:00,
2013-01-18 05:19:00,23.8,15.5,30.36,SSE,167,0.0,0.0,70,0.00,,,0.00,WUHU216DAVISVP2,2013-01-18 10:19:00,
2013-01-18 05:24:00,23.8,15.5,30.36,SSE,167,0.0,0.0,70,0.00,,,0.00,WUHU216DAVISVP2,2013-01-18 10:24:00,
2013-01-18 05:29:00,23.6,15.6,30.38,SSE,167,0.0,0.0,71,0.00,,,0.00,WUHU216DAVISVP2,2013-01-18 10:29:00,
2013-01-18 05:34:00,23.6,15.9,30.38,SSE,167,0.0,0.0,72,0.00,,,0.00,WUHU216DAVISVP2,2013-01-18 10:34:00,
2013-01-18 05:39:00,23.6,15.9,30.38,SSE,167,0.0,0.0,72,0.00,,,0.00,WUHU216DAVISVP2,2013-01-18 10:39:00,
2013-01-18 05:44:00,23.5,15.8,30.38,SSE,167,0.0,0.0,72,0.00,,,0.00,WUHU216DAVISVP2,2013-01-18 10:44:00,
2013-01-18 05:49:00,23.5,16.2,30.38,SSE,167,0.0,0.0,73,0.00,,,0.00,WUHU216DAVISVP2,2013-01-18 10:49:00,
2013-01-18 05:55:00,23.5,15.8,30.38,SSE,167,0.0,0.0,72,0.00,,,0.00,WUHU216DAVISVP2,2013-01-18 10:55:00,
2013-01-18 06:00:00,23.4,15.7,30.38,SSE,167,0.0,0.0,72,0.00,,,0.00,WUHU216DAVISVP2,2013-01-18 11:00:00,
2013-01-18 06:05:00,23.4,15.4,30.38,SSE,167,0.0,0.0,71,0.00,,,0.00,WUHU216DAVISVP2,2013-01-18 11:05:00,
2013-01-18 06:10:00,23.4,15.4,30.38,SSE,167,0.0,0.0,71,0.00,,,0.00,WUHU216DAVISVP2,2013-01-18 11:10:00,
2013-01-18 06:15:00,23.3,15.7,30.37,SSE,167,0.0,0.0,72,0.00,,,0.00,WUHU216DAVISVP2,2013-01-18 11:15:00,
2013-01-18 06:20:00,23.1,15.5,30.38,SSE,167,0.0,0.0,72,0.00,,,0.00,WUHU216DAVISVP2,2013-01-18 11:20:00,
2013-01-18 06:25:00,23.1,15.1,30.38,SSE,167,0.0,0.0,71,0.00,,,0.00,WUHU216DAVISVP2,2013-01-18 11:25:00,
2013-01-18 06:30:00,22.9,14.9,30.38,SSE,167,0.0,0.0,71,0.00,,,0.00,WUHU216DAVISVP2,2013-01-18 11:30:00,
2013-01-18 06:35:00,22.8,14.9,30.38,SSE,167,0.0,0.0,71,0.00,,,0.00,WUHU216DAVISVP2,2013-01-18 11:35:00,
2013-01-18 06:40:00,22.6,14.7,30.38,SSE,167,0.0,0.0,71,0.00,,,0.00,WUHU216DAVISVP2,2013-01-18 11:40:00,
2013-01-18 06:45:00,22.5,14.5,30.38,SSE,167,0.0,0.0,71,0.00,,,0.00,WUHU216DAVISVP2,2013-01-18 11:45:00,
2013-01-18 06:50:00,22.4,14.5,30.38,SSE,167,0.0,0.0,71,0.00,,,0.00,WUHU216DAVISVP2,2013-01-18 11:50:00,
2013-01-18 06:56:00,22.3,14.4,30.39,SSE,167,0.0,0.0,71,0.00,,,0.00,WUHU216DAVISVP2,2013-01-18 11:56:00,
2013-01-18 07:01:00,22.3,14.3,30.39,SSE,167,0.0,0.0,71,0.00,,,0.00,WUHU216DAVISVP2,2013-01-18 12:01:00,
2013-01-18 07:06:00,22.4,14.5,30.39,SSE,167,0.0,0.0,71,0.00,,,0.00,WUHU216DAVISVP2,2013-01-18 12:06:00,
2013-01-18 07:11:00,22.4,14.5,30.39,SSE,167,0.0,0.0,71,0.00,,,0.00,WUHU216DAVISVP2,2013-01-18 12:11:00,
2013-01-18 07:16:00,22.3,14.0,30.39,SSE,167,0.0,0.0,70,0.00,,,0.00,WUHU216DAVISVP2,2013-01-18 12:16:00,
2013-01-18 07:21:00,22.3,14.0,30.39,SSE,167,0.0,0.0,70,0.00,,,0.00,WUHU216DAVISVP2,2013-01-18 12:21:00,
2013-01-18 07:26:00,22.2,14.0,30.40,SSE,167,0.0,0.0,70,0.00,,,0.00,WUHU216DAVISVP2,2013-01-18 12:26:00,
2013-01-18 07:31:00,22.1,13.9,30.40,SSE,167,0.0,0.0,70,0.00,,,0.00,WUHU216DAVISVP2,2013-01-18 12:31:00,
2013-01-18 07:36:00,22.1,14.2,30.40,SSE,167,0.0,0.0,71,0.00,,,0.00,WUHU216DAVISVP2,2013-01-18 12:36:00,
2013-01-18 07:41:00,22.1,14.2,30.40,SSE,167,0.0,0.0,71,0.00,,,0.00,WUHU216DAVISVP2,2013-01-18 12:41:00,
2013-01-18 07:47:00,22.0,14.1,30.39,SSE,167,0.0,0.0,71,0.00,,,0.00,WUHU216DAVISVP2,2013-01-18 12:47:00,
2013-01-18 07:52:00,22.0,14.4,30.39,SSE,167,0.0,0.0,72,0.00,,,0.00,WUHU216DAVISVP2,2013-01-18 12:52:00,
2013-01-18 07:57:00,21.9,14.6,30.39,SSE,167,0.0,0.0,73,0.00,,,0.00,WUHU216DAVISVP2,2013-01-18 12:57:00,
2013-01-18 08:02:00,21.7,14.4,30.39,SSE,167,0.0,0.0,73,0.00,,,0.00,WUHU216DAVISVP2,2013-01-18 13:02:00,
2013-01-18 08:07:00,21.6,14.3,30.39,SSE,167,0.0,0.0,73,0.00,,,0.00,WUHU216DAVISVP2,2013-01-18 13:07:00,
2013-01-18 08:12:00,21.4,14.4,30.39,SSE,167,0.0,0.0,74,0.00,,,0.00,WUHU216DAVISVP2,2013-01-18 13:12:00,
2013-01-18 08:17:00,21.2,14.5,30.39,SSE,167,0.0,0.0,75,0.00,,,0.00,WUHU216DAVISVP2,2013-01-18 13:17:00,
2013-01-18 08:22:00,21.1,14.4,30.39,SSE,167,0.0,0.0,75,0.00,,,0.00,WUHU216DAVISVP2,2013-01-18 13:22:00,
2013-01-18 08:27:00,21.0,14.0,30.40,SSE,167,0.0,0.0,74,0.00,,,0.00,WUHU216DAVISVP2,2013-01-18 13:27:00,
2013-01-18 08:32:00,20.9,14.2,30.40,SSE,167,0.0,0.0,75,0.00,,,0.00,WUHU216DAVISVP2,2013-01-18 13:32:00,
2013-01-18 08:37:00,21.0,14.0,30.40,SSE,167,0.0,0.0,74,0.00,,,0.00,WUHU216DAVISVP2,2013-01-18 13:37:00,
2013-01-18 08:43:00,20.9,14.0,30.40,SSE,167,0.0,0.0,74,0.00,,,0.00,WUHU216DAVISVP2,2013-01-18 13:43:00,
2013-01-18 08:48:00,20.9,14.0,30.40,SSE,167,0.0,0.0,74,0.00,,,0.00,WUHU216DAVISVP2,2013-01-18 13:48:00,
2013-01-18 08:53:00,21.1,14.4,30.40,SSE,167,0.0,0.0,75,0.00,,,0.00,WUHU216DAVISVP2,2013-01-18 13:53:00,
2013-01-18 08:58:00,21.3,14.0,30.40,SSE,167,0.0,0.0,73,0.00,,,0.00,WUHU216DAVISVP2,2013-01-18 13:58:00,
2013-01-18 09:03:00,21.5,14.5,30.40,SSE,167,0.0,0.0,74,0.00,,,0.00,WUHU216DAVISVP2,2013-01-18 14:03:00,
2013-01-18 09:08:00,21.6,14.3,30.39,SSE,167,0.0,0.0,73,0.00,,,0.00,WUHU216DAVISVP2,2013-01-18 14:08:00,
2013-01-18 09:13:00,21.8,14.5,30.40,SSE,167,0.0,0.0,73,0.00,,,0.00,WUHU216DAVISVP2,2013-01-18 14:13:00,
2013-01-18 09:18:00,22.0,14.7,30.40,SSE,167,0.0,0.0,73,0.00,,,0.00,WUHU216DAVISVP2,2013-01-18 14:18:00,
2013-01-18 09:23:00,22.2,14.6,30.40,SSE,167,0.0,0.0,72,0.00,,,0.00,WUHU216DAVISVP2,2013-01-18 14:23:00,
2013-01-18 09:29:00,22.3,15.0,30.40,WSW,242,0.0,0.0,73,0.00,,,0.00,WUHU216DAVISVP2,2013-01-18 14:29:00,
2013-01-18 09:34:00,22.4,15.1,30.40,SSE,167,0.0,0.0,73,0.00,,,0.00,WUHU216DAVISVP2,2013-01-18 14:34:00,
2013-01-18 09:39:00,22.7,15.4,30.40,SSE,167,0.0,0.0,73,0.00,,,0.00,WUHU216DAVISVP2,2013-01-18 14:39:00,
2013-01-18 09:44:00,23.0,16.0,30.40,WSW,247,0.0,0.0,74,0.00,,,0.00,WUHU216DAVISVP2,2013-01-18 14:44:00,
2013-01-18 09:49:00,23.4,16.4,30.40,SSE,167,0.0,0.0,74,0.00,,,0.00,WUHU216DAVISVP2,2013-01-18 14:49:00,
2013-01-18 09:54:00,23.7,17.0,30.40,West,275,0.0,0.0,75,0.00,,,0.00,WUHU216DAVISVP2,2013-01-18 14:54:00,
2013-01-18 09:59:00,24.1,17.4,30.40,South,173,0.0,0.0,75,0.00,,,0.00,WUHU216DAVISVP2,2013-01-18 14:59:00,
2013-01-18 10:04:00,24.4,17.6,30.40,NW,315,0.0,0.0,75,0.00,,,0.00,WUHU216DAVISVP2,2013-01-18 15:04:00,
2013-01-18 10:10:00,24.8,18.6,30.40,West,268,0.0,0.0,77,0.00,,,0.00,WUHU216DAVISVP2,2013-01-18 15:10:00,
2013-01-18 10:15:00,25.3,19.4,30.39,NE,47,0.0,0.0,78,0.00,,,0.00,WUHU216DAVISVP2,2013-01-18 15:15:00,
2013-01-18 10:20:00,26.5,20.0,30.39,North,360,0.0,0.0,76,0.00,,,0.00,WUHU216DAVISVP2,2013-01-18 15:20:00,
2013-01-18 10:25:00,27.1,20.3,30.39,North,5,0.0,0.0,75,0.00,,,0.00,WUHU216DAVISVP2,2013-01-18 15:25:00,
2013-01-18 10:30:00,28.1,20.6,30.39,NNE,14,0.0,0.0,73,0.00,,,0.00,WUHU216DAVISVP2,2013-01-18 15:30:00,
2013-01-18 10:35:00,28.7,20.9,30.39,NNE,25,0.0,0.0,72,0.00,,,0.00,WUHU216DAVISVP2,2013-01-18 15:35:00,
2013-01-18 10:40:00,29.1,20.6,30.39,NNE,24,0.0,0.0,70,0.00,,,0.00,WUHU216DAVISVP2,2013-01-18 15:40:00,
2013-01-18 10:45:00,29.3,20.8,30.39,NNW,348,0.0,0.0,70,0.00,,,0.00,WUHU216DAVISVP2,2013-01-18 15:45:00,
2013-01-18 10:51:00,29.4,20.5,30.39,North,11,0.0,0.0,69,0.00,,,0.00,WUHU216DAVISVP2,2013-01-18 15:51:00,
2013-01-18 10:56:00,29.4,20.5,30.39,North,11,0.0,0.0,69,0.00,,,0.00,WUHU216DAVISVP2,2013-01-18 15:56:00,
2013-01-18 11:01:00,29.4,20.9,30.39,North,5,0.0,0.0,70,0.00,,,0.00,WUHU216DAVISVP2,2013-01-18 16:01:00,
2013-01-18 11:06:00,29.5,21.0,30.39,NNW,345,0.0,0.0,70,0.00,,,0.00,WUHU216DAVISVP2,2013-01-18 16:06:00,
2013-01-18 11:11:00,29.7,20.5,30.39,NE,48,0.0,0.0,68,0.00,,,0.00,WUHU216DAVISVP2,2013-01-18 16:11:00,
2013-01-18 11:16:00,29.7,20.8,30.38,NE,38,0.0,0.0,69,0.00,,,0.00,WUHU216DAVISVP2,2013-01-18 16:16:00,
2013-01-18 11:21:00,29.7,20.5,30.38,NW,310,0.0,0.0,68,0.00,,,0.00,WUHU216DAVISVP2,2013-01-18 16:21:00,
2013-01-18 11:26:00,29.8,20.9,30.37,NE,52,0.0,0.0,69,0.00,,,0.00,WUHU216DAVISVP2,2013-01-18 16:26:00,
2013-01-18 11:31:00,29.9,20.7,30.36,North,360,0.0,0.0,68,0.00,,,0.00,WUHU216DAVISVP2,2013-01-18 16:31:00,
2013-01-18 11:36:00,30.2,21.0,30.36,NE,40,0.0,0.0,68,0.00,,,0.00,WUHU216DAVISVP2,2013-01-18 16:36:00,
2013-01-18 11:41:00,30.5,20.9,30.36,NNE,28,0.0,0.0,67,0.00,,,0.00,WUHU216DAVISVP2,2013-01-18 16:41:00,
2013-01-18 11:46:00,30.6,20.7,30.35,North,350,0.0,0.0,66,0.00,,,0.00,WUHU216DAVISVP2,2013-01-18 16:46:00,
2013-01-18 11:51:00,30.5,20.6,30.34,NE,44,0.0,0.0,66,0.00,,,0.00,WUHU216DAVISVP2,2013-01-18 16:51:00,
2013-01-18 11:56:00,30.5,20.8,30.34,North,5,0.0,0.0,67,0.00,,,0.00,WUHU216DAVISVP2,2013-01-18 16:56:00,
2013-01-18 12:02:00,30.7,21.1,30.33,North,360,0.0,0.0,67,0.00,,,0.00,WUHU216DAVISVP2,2013-01-18 17:02:00,
2013-01-18 12:07:00,30.7,21.1,30.33,North,350,0.0,0.0,67,0.00,,,0.00,WUHU216DAVISVP2,2013-01-18 17:07:00,
2013-01-18 12:12:00,30.8,20.8,30.33,North,350,0.0,0.0,66,0.00,,,0.00,WUHU216DAVISVP2,2013-01-18 17:12:00,
2013-01-18 12:17:00,31.2,21.2,30.33,NNE,30,0.0,0.0,66,0.00,,,0.00,WUHU216DAVISVP2,2013-01-18 17:17:00,
2013-01-18 12:22:00,31.2,20.8,30.32,NNE,17,0.0,0.0,65,0.00,,,0.00,WUHU216DAVISVP2,2013-01-18 17:22:00,
2013-01-18 12:27:00,31.3,20.9,30.33,North,11,0.0,0.0,65,0.00,,,0.00,WUHU216DAVISVP2,2013-01-18 17:27:00,
2013-01-18 12:32:00,31.7,21.3,30.32,NE,40,0.0,0.0,65,0.00,,,0.00,WUHU216DAVISVP2,2013-01-18 17:32:00,
2013-01-18 12:37:00,32.1,21.7,30.32,NE,47,0.0,0.0,65,0.00,,,0.00,WUHU216DAVISVP2,2013-01-18 17:37:00,
2013-01-18 12:42:00,32.3,21.9,30.31,North,349,0.0,0.0,65,0.00,,,0.00,WUHU216DAVISVP2,2013-01-18 17:42:00,
2013-01-18 12:48:00,32.4,21.6,30.30,North,9,0.0,0.0,64,0.00,,,0.00,WUHU216DAVISVP2,2013-01-18 17:48:00,
2013-01-18 12:53:00,32.3,21.2,30.29,NNW,341,0.0,0.0,63,0.00,,,0.00,WUHU216DAVISVP2,2013-01-18 17:53:00,
2013-01-18 12:58:00,32.2,21.4,30.29,NNE,28,0.0,0.0,64,0.00,,,0.00,WUHU216DAVISVP2,2013-01-18 17:58:00,
2013-01-18 13:03:00,32.2,21.1,30.28,North,360,0.0,0.0,63,0.00,,,0.00,WUHU216DAVISVP2,2013-01-18 18:03:00,
2013-01-18 13:08:00,32.2,21.1,30.28,NNW,338,0.0,0.0,63,0.00,,,0.00,WUHU216DAVISVP2,2013-01-18 18:08:00,
2013-01-18 13:13:00,32.2,21.1,30.28,NNE,30,0.0,0.0,63,0.00,,,0.00,WUHU216DAVISVP2,2013-01-18 18:13:00,
2013-01-18 13:18:00,32.7,21.6,30.27,North,11,0.0,0.0,63,0.00,,,0.00,WUHU216DAVISVP2,2013-01-18 18:18:00,
2013-01-18 13:23:00,32.8,21.3,30.26,North,11,0.0,0.0,62,0.00,,,0.00,WUHU216DAVISVP2,2013-01-18 18:23:00,
2013-01-18 13:28:00,32.9,21.7,30.26,NE,51,0.0,0.0,63,0.00,,,0.00,WUHU216DAVISVP2,2013-01-18 18:28:00,
2013-01-18 13:33:00,33.2,21.6,30.26,NE,39,0.0,0.0,62,0.00,,,0.00,WUHU216DAVISVP2,2013-01-18 18:33:00,
2013-01-18 13:38:00,33.2,21.2,30.26,NE,44,0.0,0.0,61,0.00,,,0.00,WUHU216DAVISVP2,2013-01-18 18:38:00,
2013-01-18 13:43:00,33.2,21.2,30.25,NNW,338,0.0,0.0,61,0.00,,,0.00,WUHU216DAVISVP2,2013-01-18 18:43:00,
2013-01-18 13:48:00,33.3,21.3,30.25,NW,321,0.0,0.0,61,0.00,,,0.00,WUHU216DAVISVP2,2013-01-18 18:48:00,
2013-01-18 13:53:00,33.4,21.4,30.25,North,355,0.0,0.0,61,0.00,,,0.00,WUHU216DAVISVP2,2013-01-18 18:53:00,
2013-01-18 13:59:00,33.4,21.4,30.24,NNW,345,0.0,0.0,61,0.00,,,0.00,WUHU216DAVISVP2,2013-01-18 18:59:00,
2013-01-18 14:04:00,33.3,21.3,30.24,North,5,0.0,0.0,61,0.00,,,0.00,WUHU216DAVISVP2,2013-01-18 19:04:00,
2013-01-18 14:09:00,33.3,21.0,30.23,NNW,342,0.0,0.0,60,0.00,,,0.00,WUHU216DAVISVP2,2013-01-18 19:09:00,
2013-01-18 14:14:00,33.4,22.2,30.24,NE,38,0.0,0.0,63,0.00,,,0.00,WUHU216DAVISVP2,2013-01-18 19:14:00,
2013-01-18 14:19:00,33.4,21.8,30.24,North,10,0.0,0.0,62,0.00,,,0.00,WUHU216DAVISVP2,2013-01-18 19:19:00,
2013-01-18 14:24:00,33.4,21.8,30.24,North,10,0.0,0.0,62,0.00,,,0.00,WUHU216DAVISVP2,2013-01-18 19:24:00,
2013-01-18 14:29:00,33.5,22.3,30.22,NE,41,0.0,0.0,63,0.00,,,0.00,WUHU216DAVISVP2,2013-01-18 19:29:00,
2013-01-18 14:34:00,33.5,22.3,30.22,NNW,338,0.0,0.0,63,0.00,,,0.00,WUHU216DAVISVP2,2013-01-18 19:34:00,
2013-01-18 14:39:00,33.5,22.3,30.22,North,5,0.0,0.0,63,0.00,,,0.00,WUHU216DAVISVP2,2013-01-18 19:39:00,
2013-01-18 14:44:00,33.7,22.5,30.21,NNE,14,0.0,0.0,63,0.00,,,0.00,WUHU216DAVISVP2,2013-01-18 19:44:00,
2013-01-18 14:49:00,33.8,22.6,30.21,North,5,0.0,0.0,63,0.00,,,0.00,WUHU216DAVISVP2,2013-01-18 19:49:00,
2013-01-18 14:55:00,33.8,23.0,30.20,NE,34,0.0,0.0,64,0.00,,,0.00,WUHU216DAVISVP2,2013-01-18 19:55:00,
2013-01-18 15:00:00,33.8,23.0,30.20,NNE,14,0.0,0.0,64,0.00,,,0.00,WUHU216DAVISVP2,2013-01-18 20:00:00,
2013-01-18 15:05:00,33.8,23.0,30.20,ENE,71,0.0,0.0,64,0.00,,,0.00,WUHU216DAVISVP2,2013-01-18 20:05:00,
2013-01-18 15:10:00,33.8,23.3,30.20,NNW,333,0.0,0.0,65,0.00,,,0.00,WUHU216DAVISVP2,2013-01-18 20:10:00,
2013-01-18 15:15:00,33.9,23.8,30.20,NNW,340,0.0,0.0,66,0.00,,,0.00,WUHU216DAVISVP2,2013-01-18 20:15:00,
2013-01-18 15:20:00,34.2,23.7,30.19,North,360,0.0,0.0,65,0.00,,,0.00,WUHU216DAVISVP2,2013-01-18 20:20:00,
2013-01-18 15:25:00,34.2,23.4,30.18,NNE,26,0.0,0.0,64,0.00,,,0.00,WUHU216DAVISVP2,2013-01-18 20:25:00,
2013-01-18 15:30:00,34.0,23.2,30.18,NNE,30,0.0,0.0,64,0.00,,,0.00,WUHU216DAVISVP2,2013-01-18 20:30:00,
2013-01-18 15:35:00,34.0,23.2,30.17,NNE,32,0.0,0.0,64,0.00,,,0.00,WUHU216DAVISVP2,2013-01-18 20:35:00,
2013-01-18 15:40:00,34.2,23.4,30.18,NNE,16,0.0,0.0,64,0.00,,,0.00,WUHU216DAVISVP2,2013-01-18 20:40:00,
2013-01-18 15:45:00,34.6,24.1,30.17,North,5,0.0,0.0,65,0.00,,,0.00,WUHU216DAVISVP2,2013-01-18 20:45:00,
2013-01-18 15:51:00,34.6,24.1,30.17,NNW,343,0.0,0.0,65,0.00,,,0.00,WUHU216DAVISVP2,2013-01-18 20:51:00,
2013-01-18 15:56:00,34.8,24.3,30.17,NNE,19,0.0,0.0,65,0.00,,,0.00,WUHU216DAVISVP2,2013-01-18 20:56:00,
2013-01-18 16:01:00,34.9,24.4,30.16,NE,43,0.0,0.0,65,0.00,,,0.00,WUHU216DAVISVP2,2013-01-18 21:01:00,
2013-01-18 16:06:00,34.8,23.9,30.16,NNE,26,0.0,0.0,64,0.00,,,0.00,WUHU216DAVISVP2,2013-01-18 21:06:00,
2013-01-18 16:11:00,34.8,23.9,30.16,North,355,0.0,0.0,64,0.00,,,0.00,WUHU216DAVISVP2,2013-01-18 21:11:00,
2013-01-18 16:16:00,35.0,24.1,30.16,NNW,331,0.0,0.0,64,0.00,,,0.00,WUHU216DAVISVP2,2013-01-18 21:16:00,
2013-01-18 16:21:00,35.0,24.1,30.15,ENE,58,0.0,0.0,64,0.00,,,0.00,WUHU216DAVISVP2,2013-01-18 21:21:00,
2013-01-18 16:26:00,35.0,24.1,30.15,NE,51,0.0,0.0,64,0.00,,,0.00,WUHU216DAVISVP2,2013-01-18 21:26:00,
2013-01-18 16:31:00,35.0,24.1,30.15,North,5,0.0,0.0,64,0.00,,,0.00,WUHU216DAVISVP2,2013-01-18 21:31:00,
2013-01-18 16:36:00,35.1,24.6,30.15,NE,34,0.0,0.0,65,0.00,,,0.00,WUHU216DAVISVP2,2013-01-18 21:36:00,
2013-01-18 16:41:00,35.2,24.7,30.14,NE,39,0.0,0.0,65,0.00,,,0.00,WUHU216DAVISVP2,2013-01-18 21:41:00,
2013-01-18 16:46:00,35.4,24.9,30.14,NE,42,0.0,0.0,65,0.00,,,0.00,WUHU216DAVISVP2,2013-01-18 21:46:00,
2013-01-18 16:51:00,35.6,24.7,30.14,NW,305,0.0,0.0,64,0.00,,,0.00,WUHU216DAVISVP2,2013-01-18 21:51:00,
2013-01-18 16:56:00,35.7,24.4,30.13,ENE,63,0.0,0.0,63,0.00,,,0.00,WUHU216DAVISVP2,2013-01-18 21:56:00,
2013-01-18 17:02:00,35.6,24.7,30.13,North,9,0.0,0.0,64,0.00,,,0.00,WUHU216DAVISVP2,2013-01-18 22:02:00,
2013-01-18 17:07:00,35.6,24.7,30.13,North,5,0.0,0.0,64,0.00,,,0.00,WUHU216DAVISVP2,2013-01-18 22:07:00,
2013-01-18 17:12:00,35.6,24.3,30.13,NNW,338,0.0,0.0,63,0.00,,,0.00,WUHU216DAVISVP2,2013-01-18 22:12:00,
2013-01-18 17:17:00,35.7,24.4,30.13,NNW,339,0.0,0.0,63,0.00,,,0.00,WUHU216DAVISVP2,2013-01-18 22:17:00,
2013-01-18 17:22:00,35.7,24.4,30.12,NNE,15,0.0,0.0,63,0.00,,,0.00,WUHU216DAVISVP2,2013-01-18 22:22:00,
2013-01-18 17:27:00,35.8,24.5,30.12,NE,43,0.0,0.0,63,0.00,,,0.00,WUHU216DAVISVP2,2013-01-18 22:27:00,
2013-01-18 17:32:00,35.8,24.5,30.12,NE,37,0.0,0.0,63,0.00,,,0.00,WUHU216DAVISVP2,2013-01-18 22:32:00,
2013-01-18 17:37:00,35.8,24.5,30.12,NE,37,0.0,0.0,63,0.00,,,0.00,WUHU216DAVISVP2,2013-01-18 22:37:00,
2013-01-18 17:42:00,35.9,24.5,30.11,NW,326,0.0,0.0,63,0.00,,,0.00,WUHU216DAVISVP2,2013-01-18 22:42:00,
2013-01-18 17:47:00,35.8,24.5,30.11,NE,44,0.0,0.0,63,0.00,,,0.00,WUHU216DAVISVP2,2013-01-18 22:47:00,
2013-01-18 17:52:00,35.7,24.4,30.11,NNE,20,0.0,0.0,63,0.00,,,0.00,WUHU216DAVISVP2,2013-01-18 22:52:00,
2013-01-18 17:57:00,35.6,24.6,30.10,NNE,13,0.0,0.0,64,0.00,,,0.00,WUHU216DAVISVP2,2013-01-18 22:57:00,
2013-01-18 18:03:00,35.6,24.6,30.10,NW,306,0.0,0.0,64,0.00,,,0.00,WUHU216DAVISVP2,2013-01-18 23:03:00,
2013-01-18 18:08:00,35.4,24.4,30.09,NNE,29,0.0,0.0,64,0.00,,,0.00,WUHU216DAVISVP2,2013-01-18 23:08:00,
2013-01-18 18:13:00,35.2,24.2,30.09,North,350,0.0,0.0,64,0.00,,,0.00,WUHU216DAVISVP2,2013-01-18 23:13:00,
2013-01-18 18:18:00,35.2,24.7,30.09,NNW,346,0.0,0.0,65,0.00,,,0.00,WUHU216DAVISVP2,2013-01-18 23:18:00,
2013-01-18 18:23:00,35.3,24.3,30.09,NNW,347,0.0,0.0,64,0.00,,,0.00,WUHU216DAVISVP2,2013-01-18 23:23:00,
2013-01-18 18:28:00,35.4,24.0,30.08,NNE,13,0.0,0.0,63,0.00,,,0.00,WUHU216DAVISVP2,2013-01-18 23:28:00,
2013-01-18 18:33:00,35.4,24.0,30.08,NNE,17,0.0,0.0,63,0.00,,,0.00,WUHU216DAVISVP2,2013-01-18 23:33:00,
2013-01-18 18:38:00,35.4,24.0,30.08,NNE,24,0.0,0.0,63,0.00,,,0.00,WUHU216DAVISVP2,2013-01-18 23:38:00,
2013-01-18 18:44:00,35.5,24.1,30.08,NNW,344,0.0,0.0,63,0.00,,,0.00,WUHU216DAVISVP2,2013-01-18 23:44:00,
2013-01-18 18:49:00,35.4,24.0,30.08,NNW,338,0.0,0.0,63,0.00,,,0.00,WUHU216DAVISVP2,2013-01-18 23:49:00,
2013-01-18 18:54:00,35.4,23.7,30.07,NNE,24,0.0,0.0,62,0.00,,,0.00,WUHU216DAVISVP2,2013-01-18 23:54:00,
2013-01-18 18:59:00,35.3,24.0,30.07,ENE,64,0.0,0.0,63,0.00,,,0.00,WUHU216DAVISVP2,2013-01-18 23:59:00,
2013-01-18 19:04:00,35.1,23.8,30.06,NNW,348,0.0,0.0,63,0.00,,,0.00,WUHU216DAVISVP2,2013-01-19 00:04:00,
2013-01-18 19:09:00,35.0,24.0,30.07,NNE,30,0.0,0.0,64,0.00,,,0.00,WUHU216DAVISVP2,2013-01-19 00:09:00,
2013-01-18 19:14:00,34.8,23.9,30.06,North,355,0.0,0.0,64,0.00,,,0.00,WUHU216DAVISVP2,2013-01-19 00:14:00,
2013-01-18 19:19:00,34.7,23.8,30.06,NNW,340,0.0,0.0,64,0.00,,,0.00,WUHU216DAVISVP2,2013-01-19 00:19:00,
2013-01-18 19:25:00,34.8,23.9,30.06,NNE,15,0.0,0.0,64,0.00,,,0.00,WUHU216DAVISVP2,2013-01-19 00:25:00,
2013-01-18 19:30:00,35.0,24.0,30.06,North,355,0.0,0.0,64,0.00,,,0.00,WUHU216DAVISVP2,2013-01-19 00:30:00,
2013-01-18 19:35:00,35.0,24.0,30.05,NNW,348,0.0,0.0,64,0.00,,,0.00,WUHU216DAVISVP2,2013-01-19 00:35:00,
2013-01-18 19:40:00,35.0,24.0,30.05,North,355,0.0,0.0,64,0.00,,,0.00,WUHU216DAVISVP2,2013-01-19 00:40:00,
2013-01-18 19:45:00,35.0,24.0,30.05,NNE,19,0.0,0.0,64,0.00,,,0.00,WUHU216DAVISVP2,2013-01-19 00:45:00,
2013-01-18 19:50:00,35.1,24.1,30.04,NNE,29,0.0,0.0,64,0.00,,,0.00,WUHU216DAVISVP2,2013-01-19 00:50:00,
2013-01-18 19:55:00,35.1,24.1,30.04,North,9,0.0,0.0,64,0.00,,,0.00,WUHU216DAVISVP2,2013-01-19 00:55:00,
2013-01-18 20:00:00,35.2,24.2,30.04,NE,35,0.0,0.0,64,0.00,,,0.00,WUHU216DAVISVP2,2013-01-19 01:00:00,
2013-01-18 20:06:00,35.0,24.0,30.04,North,5,0.0,0.0,64,0.00,,,0.00,WUHU216DAVISVP2,2013-01-19 01:06:00,
2013-01-18 20:11:00,35.1,24.1,30.03,NNW,345,0.0,0.0,64,0.00,,,0.00,WUHU216DAVISVP2,2013-01-19 01:11:00,
2013-01-18 20:16:00,35.2,24.2,30.03,North,355,0.0,0.0,64,0.00,,,0.00,WUHU216DAVISVP2,2013-01-19 01:16:00,
2013-01-18 20:21:00,35.2,24.2,30.03,NE,40,0.0,0.0,64,0.00,,,0.00,WUHU216DAVISVP2,2013-01-19 01:21:00,
2013-01-18 20:26:00,35.3,24.3,30.03,ESE,115,0.0,0.0,64,0.00,,,0.00,WUHU216DAVISVP2,2013-01-19 01:26:00,
2013-01-18 20:31:00,35.3,24.3,30.02,NNE,27,0.0,0.0,64,0.00,,,0.00,WUHU216DAVISVP2,2013-01-19 01:31:00,
2013-01-18 20:36:00,35.5,24.9,30.02,NNW,346,0.0,0.0,65,0.00,,,0.00,WUHU216DAVISVP2,2013-01-19 01:36:00,
2013-01-18 20:41:00,35.4,24.8,30.02,NE,48,0.0,0.0,65,0.00,,,0.00,WUHU216DAVISVP2,2013-01-19 01:41:00,
2013-01-18 20:46:00,35.4,24.8,30.02,North,10,0.0,0.0,65,0.00,,,0.00,WUHU216DAVISVP2,2013-01-19 01:46:00,
2013-01-18 20:52:00,35.3,24.7,30.02,NE,37,0.0,0.0,65,0.00,,,0.00,WUHU216DAVISVP2,2013-01-19 01:52:00,
2013-01-18 20:57:00,35.3,25.1,30.02,NNE,23,0.0,0.0,66,0.00,,,0.00,WUHU216DAVISVP2,2013-01-19 01:57:00,
2013-01-18 21:02:00,35.3,25.1,30.02,NE,35,0.0,0.0,66,0.00,,,0.00,WUHU216DAVISVP2,2013-01-19 02:02:00,
2013-01-18 21:07:00,35.3,25.1,30.01,NNE,14,0.0,0.0,66,0.00,,,0.00,WUHU216DAVISVP2,2013-01-19 02:07:00,
2013-01-18 21:11:00,35.4,24.9,30.02,NNE,19,0.0,0.0,65,0.00,,,0.00,WUHU216DAVISVP2,2013-01-19 02:11:00,
2013-01-18 21:12:00,35.4,24.9,30.02,NNE,19,0.0,0.0,65,0.00,,,0.00,WUHU216DAVISVP2,2013-01-19 02:12:00,
2013-01-18 21:17:00,35.4,24.9,30.02,NNE,19,0.0,0.0,65,0.00,,,0.00,WUHU216DAVISVP2,2013-01-19 02:17:00,
2013-01-18 21:22:00,35.4,25.2,30.02,NE,38,0.0,0.0,66,0.00,,,0.00,WUHU216DAVISVP2,2013-01-19 02:22:00,
2013-01-18 21:27:00,35.4,25.2,30.02,NE,38,0.0,0.0,66,0.00,,,0.00,WUHU216DAVISVP2,2013-01-19 02:27:00,
2013-01-18 21:30:00,35.3,25.1,30.02,NNE,22,0.0,0.0,66,0.00,,,0.00,WUHU216DAVISVP2,2013-01-19 02:30:00,
2013-01-18 21:32:00,35.2,25.0,30.03,NE,40,0.0,0.0,66,0.00,,,0.00,WUHU216DAVISVP2,2013-01-19 02:32:00,
2013-01-18 21:37:00,35.3,25.1,30.02,NNE,22,0.0,0.0,66,0.00,,,0.00,WUHU216DAVISVP2,2013-01-19 02:37:00,
2013-01-18 21:42:00,35.2,25.3,30.02,NNE,14,0.0,0.0,67,0.00,,,0.00,WUHU216DAVISVP2,2013-01-19 02:42:00,
2013-01-18 21:48:00,35.2,25.4,30.02,NNE,19,0.0,0.0,67,0.00,,,0.00,WUHU216DAVISVP2,2013-01-19 02:48:00,
2013-01-18 21:53:00,35.2,25.4,30.02,NNE,19,0.0,0.0,67,0.00,,,0.00,WUHU216DAVISVP2,2013-01-19 02:53:00,
2013-01-18 21:58:00,35.2,25.4,30.02,NE,44,0.0,0.0,67,0.00,,,0.00,WUHU216DAVISVP2,2013-01-19 02:58:00,
2013-01-18 22:03:00,35.3,25.5,30.02,NNE,16,0.0,0.0,67,0.00,,,0.00,WUHU216DAVISVP2,2013-01-19 03:03:00,
2013-01-18 22:08:00,35.5,25.7,30.01,NE,39,0.0,0.0,67,0.00,,,0.00,WUHU216DAVISVP2,2013-01-19 03:08:00,
2013-01-18 22:13:00,35.5,25.7,30.01,North,5,0.0,0.0,67,0.00,,,0.00,WUHU216DAVISVP2,2013-01-19 03:13:00,
2013-01-18 22:19:00,35.5,25.6,30.01,NNE,19,0.0,0.0,67,0.00,,,0.00,WUHU216DAVISVP2,2013-01-19 03:19:00,
2013-01-18 22:24:00,35.5,26.0,30.01,ENE,60,0.0,0.0,68,0.00,,,0.00,WUHU216DAVISVP2,2013-01-19 03:24:00,
2013-01-18 22:29:00,35.5,25.6,30.01,NE,49,0.0,0.0,67,0.00,,,0.00,WUHU216DAVISVP2,2013-01-19 03:29:00,
2013-01-18 22:34:00,35.4,26.0,30.01,NNE,19,0.0,0.0,68,0.00,,,0.00,WUHU216DAVISVP2,2013-01-19 03:34:00,
2013-01-18 22:39:00,35.5,25.7,30.00,NE,53,0.0,0.0,67,0.00,,,0.00,WUHU216DAVISVP2,2013-01-19 03:39:00,
2013-01-18 22:44:00,35.4,26.0,30.00,NNE,27,0.0,0.0,68,0.00,,,0.00,WUHU216DAVISVP2,2013-01-19 03:44:00,
2013-01-18 22:49:00,35.4,26.0,30.00,NNE,27,0.0,0.0,68,0.00,,,0.00,WUHU216DAVISVP2,2013-01-19 03:49:00,
2013-01-18 22:54:00,35.6,25.8,30.00,North,360,0.0,0.0,67,0.00,,,0.00,WUHU216DAVISVP2,2013-01-19 03:54:00,
2013-01-18 22:59:00,35.7,25.9,29.99,NNW,344,0.0,0.0,67,0.00,,,0.00,WUHU216DAVISVP2,2013-01-19 03:59:00,
2013-01-18 23:04:00,35.8,25.9,29.99,NNE,30,0.0,0.0,67,0.00,,,0.00,WUHU216DAVISVP2,2013-01-19 04:04:00,
2013-01-18 23:10:00,35.7,25.8,29.99,NE,39,0.0,0.0,67,0.00,,,0.00,WUHU216DAVISVP2,2013-01-19 04:10:00,
2013-01-18 23:15:00,35.7,26.2,29.99,NNW,331,0.0,0.0,68,0.00,,,0.00,WUHU216DAVISVP2,2013-01-19 04:15:00,
2013-01-18 23:20:00,35.7,25.8,29.99,North,9,0.0,0.0,67,0.00,,,0.00,WUHU216DAVISVP2,2013-01-19 04:20:00,
2013-01-18 23:25:00,35.7,26.2,29.99,NNE,26,0.0,0.0,68,0.00,,,0.00,WUHU216DAVISVP2,2013-01-19 04:25:00,
2013-01-18 23:30:00,35.9,26.4,29.98,NE,35,0.0,0.0,68,0.00,,,0.00,WUHU216DAVISVP2,2013-01-19 04:30:00,
2013-01-18 23:35:00,35.9,26.4,29.98,NE,36,0.0,0.0,68,0.00,,,0.00,WUHU216DAVISVP2,2013-01-19 04:35:00,
2013-01-18 23:41:00,35.9,26.4,29.98,NNE,19,0.0,0.0,68,0.00,,,0.00,WUHU216DAVISVP2,2013-01-19 04:41:00,
2013-01-18 23:46:00,35.9,26.4,29.98,NE,49,0.0,0.0,68,0.00,,,0.00,WUHU216DAVISVP2,2013-01-19 04:46:00,
2013-01-18 23:51:00,36.0,26.5,29.97,North,355,0.0,0.0,68,0.00,,,0.00,WUHU216DAVISVP2,2013-01-19 04:51:00,
2013-01-18 23:56:00,36.1,26.6,29.97,NNE,24,0.0,0.0,68,0.00,,,0.00,WUHU216DAVISVP2,2013-01-19 04:56:00,